Date String (YYYY-MM-DD hh:mm:ss) UTC,Instrument flags,Ambient pressure (hPa),Sample flow (lpm),Bypass flow (lpm),Sample temperature (°C),Ambient temperature (°C),ASC tube jacket temperature (°C),LED temperature (°C),Box temperature (°C),Sample RH (%),Span deviation,Mass concentration (μg/m³),Mass concentration (μg/m³),Mass concentration (μg/m³)
DateTimeUTC,F1_M11,P_M11,Q1_M11,Q2_M11,T1_M11,T2_M11,T3_M11,T4_M11,T5_M11,U1_M11,ZSPAN_M11,X0_M11,X2_M11,X1_M11
2022-05-06 11:00:00,,0820.5,4.99,0.00,28.8,28.0,00.0,37.9,30.6,09.8,0000.0,0008.51,0003.80,0002.82
2022-05-06 11:01:00,,0820.4,5.00,0.00,28.8,28.0,00.0,37.9,30.5,09.9,0000.0,0008.14,0003.61,0002.47
2022-05-06 11:02:00,,0820.5,4.99,0.00,28.8,28.0,00.0,37.8,30.5,10.5,0000.0,0007.64,0003.43,0002.18
2022-05-06 11:03:00,,0820.5,5.00,0.00,28.8,27.9,00.0,37.8,30.5,10.6,0000.0,0007.56,0003.30,0001.98
2022-05-06 11:04:00,,0820.5,5.01,0.00,28.8,27.9,00.0,37.8,30.5,10.3,0000.0,0007.50,0003.24,0001.81
2022-05-06 11:05:00,,0820.5,4.99,0.00,28.8,27.9,00.0,37.8,30.5,10.2,0000.0,0007.27,0003.13,0001.64
2022-05-06 11:06:00,,0820.6,5.01,0.00,28.8,27.9,00.0,37.8,30.5,10.3,0000.0,0007.42,0003.03,0001.51
2022-05-06 11:07:00,,0820.5,4.99,0.00,28.8,27.9,00.0,37.8,30.5,10.1,0000.0,0007.95,0002.97,0001.43
2022-05-06 11:08:00,,0820.4,5.00,0.00,28.8,27.9,00.0,37.8,30.5,09.8,0000.0,0008.15,0003.05,0001.41
2022-05-06 11:09:00,,0820.5,5.00,0.00,28.8,27.9,00.0,37.8,30.5,09.8,0000.0,0007.74,0002.99,0001.39
2022-05-06 11:10:00,,0820.5,5.00,0.00,28.8,27.9,00.0,37.8,30.5,09.8,0000.0,0007.95,0002.98,0001.39
2022-05-06 11:11:00,,0820.6,5.00,0.00,28.8,27.9,00.0,37.8,30.5,09.7,0000.0,0008.65,0002.97,0001.40
2022-05-06 11:12:00,,0820.6,5.01,0.00,28.7,27.8,00.0,37.8,30.4,09.9,0000.0,0008.71,0002.98,0001.40
2022-05-06 11:13:00,,0820.5,4.99,0.00,28.7,27.8,00.0,37.8,30.4,10.0,0000.0,0008.68,0002.95,0001.42
2022-05-06 11:14:00,,0820.5,5.00,0.00,28.7,27.8,00.0,37.8,30.4,09.8,0000.0,0008.54,0002.88,0001.41
2022-05-06 11:15:00,,0820.6,5.01,0.00,28.7,27.8,00.0,37.7,30.4,09.7,0000.0,0008.46,0002.83,0001.42
2022-05-06 11:16:00,,0820.4,5.00,0.00,28.6,27.7,00.0,37.7,30.3,09.8,0000.0,0008.52,0002.86,0001.41
2022-05-06 11:17:00,,0820.4,5.01,0.00,28.6,27.7,00.0,37.7,30.3,09.6,0000.0,0008.17,0002.83,0001.42
2022-05-06 11:18:00,,0820.4,4.99,0.00,28.6,27.6,00.0,37.7,30.3,09.8,0000.0,0007.66,0002.80,0001.43
2022-05-06 11:19:00,,0820.4,5.01,0.00,28.6,27.6,00.0,37.7,30.2,10.1,0000.0,0007.59,0002.79,0001.45
2022-05-06 11:20:00,,0820.4,4.99,0.00,28.6,27.6,00.0,37.7,30.2,10.5,0000.0,0007.62,0002.85,0001.48
2022-05-06 11:21:00,,0820.4,5.02,0.00,28.5,27.6,00.0,37.6,30.2,10.4,0000.0,0007.25,0002.95,0001.52
2022-05-06 11:22:00,,0820.3,4.99,0.00,28.5,27.5,00.0,37.6,30.1,10.7,0000.0,0006.33,0003.07,0001.54
2022-05-06 11:23:00,,0820.4,5.00,0.00,28.5,27.5,00.0,37.6,30.2,10.8,0000.0,0006.41,0003.11,0001.56
2022-05-06 11:24:00,,0820.4,5.01,0.00,28.5,27.5,00.0,37.6,30.2,09.8,0000.0,0006.51,0003.14,0001.58
2022-05-06 11:25:00,,0820.4,4.99,0.00,28.5,27.5,00.0,37.6,30.2,10.1,0000.0,0006.77,0003.19,0001.59
2022-05-06 11:26:00,,0820.3,5.01,0.00,28.5,27.5,00.0,37.6,30.1,12.8,0000.0,0006.91,0003.24,0001.66
2022-05-06 11:27:00,,0820.3,5.01,0.00,28.4,27.5,00.0,37.6,30.1,14.6,0000.0,0007.33,0003.32,0001.83
2022-05-06 11:28:00,,0820.3,4.99,0.00,28.4,27.5,00.0,37.5,30.1,13.2,0000.0,0007.47,0003.39,0001.97
2022-05-06 11:29:00,,0820.3,5.01,0.00,28.4,27.4,00.0,37.5,30.1,11.0,0000.0,0007.42,0003.41,0002.03
2022-05-06 11:30:00,,0820.3,4.99,0.00,28.4,27.4,00.0,37.5,30.1,10.2,0000.0,0007.43,0003.39,0002.04
2022-05-06 11:31:00,,0820.3,5.01,0.00,28.3,27.4,00.0,37.5,30.0,09.9,0000.0,0008.03,0003.37,0002.03
2022-05-06 11:32:00,,0820.4,4.99,0.00,28.3,27.4,00.0,37.5,30.0,09.8,0000.0,0007.94,0003.35,0002.02
2022-05-06 11:33:00,,0820.4,5.00,0.00,28.3,27.3,00.0,37.4,30.0,09.9,0000.0,0007.90,0003.32,0002.02
2022-05-06 11:34:00,,0820.3,5.00,0.00,28.3,27.3,00.0,37.4,30.0,09.9,0000.0,0007.94,0003.34,0002.02
2022-05-06 11:35:00,,0820.3,5.01,0.00,28.3,27.4,00.0,37.4,30.0,10.3,0000.0,0007.99,0003.36,0002.02
2022-05-06 11:36:00,,0820.4,4.98,0.00,28.3,27.4,00.0,37.4,30.0,10.9,0000.0,0007.84,0003.34,0002.02
2022-05-06 11:37:00,,0820.3,5.01,0.00,28.3,27.4,00.0,37.4,30.0,10.8,0000.0,0008.04,0003.31,0001.99
2022-05-06 11:38:00,,0820.3,4.99,0.00,28.3,27.4,00.0,37.4,30.0,10.0,0000.0,0008.05,0003.24,0001.86
2022-05-06 11:39:00,,0820.4,5.00,0.00,28.3,27.4,00.0,37.4,30.0,10.3,0000.0,0007.92,0003.15,0001.70
2022-05-06 11:40:00,,0820.3,4.99,0.00,28.3,27.4,00.0,37.4,29.9,10.3,0000.0,0007.90,0003.12,0001.66
2022-05-06 11:41:00,,0820.4,5.01,0.00,28.2,27.4,00.0,37.4,29.9,10.9,0000.0,0007.74,0003.12,0001.66
2022-05-06 11:42:00,,0820.4,4.99,0.00,28.2,27.4,00.0,37.3,29.9,10.6,0000.0,0007.04,0003.13,0001.67
2022-05-06 11:43:00,,0820.4,5.00,0.00,28.2,27.4,00.0,37.3,29.9,10.0,0000.0,0007.08,0003.10,0001.67
2022-05-06 11:44:00,,0820.4,5.00,0.00,28.2,27.4,00.0,37.3,29.9,10.0,0000.0,0006.92,0003.03,0001.66
2022-05-06 11:45:00,,0820.5,5.00,0.00,28.2,27.4,00.0,37.3,29.9,10.5,0000.0,0006.93,0003.03,0001.66
2022-05-06 11:46:00,,0820.5,4.99,0.00,28.2,27.4,00.0,37.3,29.9,11.1,0000.0,0007.33,0003.12,0001.68
2022-05-06 11:47:00,,0820.4,5.00,0.00,28.2,27.4,00.0,37.3,29.9,10.5,0000.0,0007.48,0003.14,0001.69
2022-05-06 11:48:00,,0820.4,4.98,0.00,28.2,27.3,00.0,37.3,29.9,10.5,0000.0,0007.24,0003.11,0001.70
2022-05-06 11:49:00,,0820.4,5.00,0.00,28.1,27.3,00.0,37.3,29.9,10.3,0000.0,0007.06,0003.15,0001.72
2022-05-06 11:50:00,,0820.3,5.01,0.00,28.1,27.3,00.0,37.2,29.9,10.2,0000.0,0007.23,0003.20,0001.74
2022-05-06 11:51:00,,0820.4,4.99,0.00,28.1,27.3,00.0,37.2,29.9,10.8,0000.0,0007.39,0003.20,0001.74
2022-05-06 11:52:00,,0820.3,5.00,0.00,28.1,27.4,00.0,37.2,29.9,10.9,0000.0,0007.81,0003.23,0001.75
2022-05-06 11:53:00,,0820.3,5.01,0.00,28.1,27.4,00.0,37.2,29.9,10.3,0000.0,0008.32,0003.22,0001.74
2022-05-06 11:54:00,,0820.3,4.99,0.00,28.1,27.4,00.0,37.2,29.9,10.2,0000.0,0008.28,0003.23,0001.74
2022-05-06 11:55:00,,0820.3,5.01,0.00,28.1,27.4,00.0,37.2,29.9,10.1,0000.0,0008.29,0003.25,0001.76
2022-05-06 11:56:00,,0820.3,4.99,0.00,28.1,27.4,00.0,37.2,29.9,09.8,0000.0,0008.12,0003.21,0001.76
2022-05-06 11:57:00,,0820.3,5.00,0.00,28.1,27.4,00.0,37.2,29.9,10.2,0000.0,0007.86,0003.15,0001.74
2022-05-06 11:58:00,,0820.4,5.01,0.00,28.1,27.4,00.0,37.2,29.9,10.3,0000.0,0007.88,0003.17,0001.74
2022-05-06 11:59:00,,0820.3,5.00,0.00,28.1,27.4,00.0,37.2,29.9,10.1,0000.0,0007.88,0003.22,0001.74
